Volver al catálogo

STARLINK-36134

ActivoComunicacionesVLEO
NORAD 66863·PAYLOAD·🇺🇸 United States

Lanzado Dec 2, 2025 desde Cape Canaveral Space Force Station

Loading…

Próximos Pases (próximas 24 horas)

TLE

ActualizadoSource: CelesTrak SupGP

Época: Sep 14, 2026, 23:05 UTC

1 66863C 25281R   26257.96229167 -.00015854  00000+0 -57420-3 0  2573
2 66863  43.0044 354.1308 0002003 267.1851 222.9490 15.27588396    18

Sigue STARLINK-36134 en tiempo real con AllMySat

Download on the App Store